Weather in Starye Urmary

Russia / Chuvash Republic     55°41′09″N   47°59′24″E
temp.,
°C
wind,
m/s
gust,
m/s
humid.,
%
clouds,
%
prec.,
mm/h
press.,
hPa
HPBL,
m
19 april, mon
mon1900:00+3ene61159100 0.0 1026417
03:00+2ene61268100 0.0 1027490
06:00+1ene71361100 0.0 1028588
09:00+4e9124698 0.0 1029952
12:00+6e91137100 0.0 10281441
15:00+7e91134100 0.0 10281613
18:00+5e71138100 0.0 1028911
21:00+3e7154236 0.0 1029573
20 april, tue
tue2000:00+1e6144752 0.0 1030455
03:000e613555 0.0 1030353
06:000e613580 0.0 1031411
09:00+5ese811380 0.0 10311035
12:00+7ese810320 0.0 10301294
15:00+9ese810290 0.0 10291399
18:00+7ese6113714 0.0 1028500
21:00+4ese61547100 0.0 1027429
21 april, wed
wed2100:00+3se7164798 0.0 1026490
03:00+2se81851100 0.0 1025669
06:00+2se91849100 0.0 1023699
09:00+3se101854100 0.3 1022780
12:00+2se112071100 0.6 1022860
15:00+2sse101891100 2.1 1021788
18:00+2sse91794100 2.1 1022649
21:00+2sse81694100 2.3 1022552
22 april, thu
thu2200:00+2sse71396100 0.1 1023441
03:00+2sse61298100 0.1 1023398
06:00+3sse61397100 0.1 1023439
09:00+5s71292100 0.1 1023500
12:00+7s6990100 0.0 1024565
15:00+8s5885100 0.0 1025628
18:00+6sse7129249 0.0 1026356
21:00+4sse5129626 0.0 1026254
23 april, fri
fri2300:00+4sse51197100 0.0 1026245
03:00+4sse5998100 0.0 1027224
06:00+4sse5998100 0.0 1027255
09:00+6sse4690100 0.0 1027360
12:00+11se4469100 0.0 1026841
15:00+9se557495 0.0 1025906
18:00+8se4778100 0.0 1025508
21:00+6se4785100 0.0 1024367